Regional Weather Roundup
Issued by NWS

Home | Current Version | Previous Version | Graphics & Text | Print | Product List | Glossary On
Versions: 1 2 3 4 5 6 7 8 9 10 11 12 13 14 15 16 17 18 19 20 21 22 23 24 25 26 27 28 29 30 31 32 33 34 35 36 37 38 39 40 41 42 43 44 45 46 47 48 49 50
000
ASUS43 KFSD 041110
RWRSD

WEATHER ROUNDUP FOR SOUTH DAKOTA
NATIONAL WEATHER SERVICE SIOUX FALLS SD
600 AM CDT MON MAY 04 2015

NOTE: "FAIR" INDICATES FEW OR NO CLOUDS BELOW 12,000 FEET WITH NO
SIGNIFICANT WEATHER AND/OR OBSTRUCTIONS TO VISIBILITY.


SDZ001>005-009-010-012>017-041200-
NORTHWEST AND NORTH CENTRAL SOUTH DAKOTA

CITY           SKY/WX    TMP DP  RH WIND       PRES   REMARKS
BUFFALO          N/A     44  31  60 SE12      30.06R
FAITH            N/A     48  23  37 SE8       30.14R
MOBRIDGE       MOCLDY    38  25  59 CALM      30.14R
$$

SDZ012>016-024>037-041>051-057-063-072>074-041200-
SOUTHWEST AND SOUTH CENTRAL SOUTH DAKOTA

CITY           SKY/WX    TMP DP  RH WIND       PRES   REMARKS
RAPID CTY ARPT CLOUDY    46  41  82 W6        30.15R
PIERRE         MOCLDY    41  25  53 E7        30.13S
CUSTER         LGT RAIN  38  34  85 E8        30.15F
ELLSWORTH AFB  LGT RAIN  46  42  86 W6        30.13F
PHILIP         CLOUDY    45  29  53 CALM      30.14R
PINE RIDGE     LGT RAIN  49  33  54 E8        30.13R
SPEARFISH      LGT RAIN  48  39  71 S3        30.12R
WINNER         FAIR      47  26  44 CALM      30.12R
$$

SDZ004>011-016>023-039-040-041200-
NORTHEAST SOUTH DAKOTA

CITY           SKY/WX    TMP DP  RH WIND       PRES   REMARKS
ABERDEEN       MOCLDY    34  24  67 CALM      30.16R
WATERTOWN      CLEAR     39  26  59 N5        30.14R
BROOKINGS      CLEAR     43  27  52 N7        30.14R
SISSETON         N/A     37  26  64 N6        30.13R
$$

SDZ017-020-022-023-036>040-048>070-041200-
SOUTHEAST SOUTH DAKOTA

CITY           SKY/WX    TMP DP  RH WIND       PRES   REMARKS
SIOUX FALLS    PTCLDY    49  28  44 N12       30.09R
HURON          CLEAR     33  24  69 CALM      30.15R
CHAMBERLAIN    CLEAR     45  25  44 NE6       30.12F
MITCHELL       CLEAR     40  31  70 NW3       30.13R
YANKTON        CLEAR     52  28  40 N15       30.07S
$$

ABBREVIATIONS USED IN REMARKS
   TC - TEMPERATURE IN CELSIUS
  WCI - WIND CHILL INDEX
   HX - HEAT INDEX
  VSB - VISIBILITY



USA.gov is the U.S. government's official web portal to all federal, state and local government web resources and services.